TimeEDT,TemperatureF,Dew PointF,Humidity,Sea Level PressureIn,VisibilityMPH,Wind Direction,Wind SpeedMPH,Gust SpeedMPH,PrecipitationIn,Events,Conditions,WindDirDegrees,DateUTC
2:35 AM,61.0,61.0,100,29.86,10.0,West,4.6,-,N/A,,Scattered Clouds,260,2012-10-19 06:35:00
2:55 AM,61.3,61.3,100,29.86,10.0,West,4.6,-,N/A,,Clear,270,2012-10-19 06:55:00
3:15 AM,60.3,60.1,99,29.86,10.0,West,3.5,-,N/A,,Clear,270,2012-10-19 07:15:00
3:35 AM,59.9,59.2,97,29.86,10.0,West,3.5,-,N/A,,Clear,280,2012-10-19 07:35:00
3:55 AM,58.5,58.3,99,29.86,10.0,West,3.5,-,N/A,,Clear,280,2012-10-19 07:55:00
4:15 AM,56.5,56.5,100,29.85,10.0,Calm,Calm,-,N/A,,Clear,0,2012-10-19 08:15:00
4:35 AM,55.4,55.4,100,29.85,10.0,Calm,Calm,-,N/A,,Clear,0,2012-10-19 08:35:00
4:55 AM,54.1,54.1,100,29.85,5.0,Calm,Calm,-,N/A,,Clear,0,2012-10-19 08:55:00
5:15 AM,53.6,53.6,100,29.86,1.0,Calm,Calm,-,N/A,,Unknown,0,2012-10-19 09:15:00
5:35 AM,52.7,52.7,100,29.86,2.0,Calm,Calm,-,N/A,,Clear,0,2012-10-19 09:35:00
5:55 AM,51.3,51.3,100,29.87,0.5,Calm,Calm,-,N/A,,Unknown,0,2012-10-19 09:55:00
6:15 AM,50.9,50.9,100,29.87,2.5,Calm,Calm,-,N/A,,Clear,0,2012-10-19 10:15:00
6:35 AM,49.8,49.8,100,29.88,0.8,Calm,Calm,-,N/A,,Unknown,0,2012-10-19 10:35:00
6:55 AM,48.7,48.7,100,29.88,0.2,Calm,Calm,-,N/A,,Unknown,0,2012-10-19 10:55:00
7:15 AM,48.4,48.4,100,29.88,3.0,Calm,Calm,-,N/A,,Clear,0,2012-10-19 11:15:00
7:35 AM,47.3,47.3,100,29.89,0.5,Calm,Calm,-,N/A,,Unknown,0,2012-10-19 11:35:00
7:55 AM,46.6,46.6,100,29.89,10.0,Calm,Calm,-,N/A,,Clear,0,2012-10-19 11:55:00
8:15 AM,46.8,46.8,100,29.89,0.2,Calm,Calm,-,N/A,,Unknown,0,2012-10-19 12:15:00
8:35 AM,49.1,49.1,100,29.89,7.0,Calm,Calm,-,N/A,,Clear,0,2012-10-19 12:35:00
8:55 AM,51.4,51.4,100,29.89,10.0,Calm,Calm,-,N/A,,Clear,0,2012-10-19 12:55:00
9:15 AM,54.5,52.0,91,29.89,10.0,Calm,Calm,-,N/A,,Clear,0,2012-10-19 13:15:00
9:35 AM,58.1,49.6,73,29.89,10.0,Calm,Calm,-,N/A,,Clear,0,2012-10-19 13:35:00
9:55 AM,60.8,48.7,64,29.90,10.0,West,3.5,-,N/A,,Clear,280,2012-10-19 13:55:00
10:15 AM,62.8,46.6,55,29.90,10.0,WNW,3.5,-,N/A,,Clear,290,2012-10-19 14:15:00
10:35 AM,65.5,44.8,47,29.90,10.0,West,5.8,-,N/A,,Clear,270,2012-10-19 14:35:00
10:55 AM,66.7,43.9,44,29.90,10.0,West,6.9,-,N/A,,Clear,270,2012-10-19 14:55:00
11:15 AM,68.0,41.0,37,29.90,10.0,West,6.9,-,N/A,,Clear,280,2012-10-19 15:15:00
11:35 AM,69.8,40.5,34,29.90,10.0,West,8.1,-,N/A,,Clear,260,2012-10-19 15:35:00
11:55 AM,70.7,37.4,30,29.90,10.0,WSW,8.1,17.3,N/A,,Clear,240,2012-10-19 15:55:00
12:15 PM,71.8,36.9,28,29.90,10.0,WSW,11.5,17.3,N/A,,Clear,240,2012-10-19 16:15:00
12:35 PM,72.0,36.7,28,29.89,10.0,SW,10.4,17.3,N/A,,Clear,220,2012-10-19 16:35:00
12:55 PM,72.5,37.4,28,29.89,10.0,West,8.1,19.6,N/A,,Clear,260,2012-10-19 16:55:00
1:15 PM,72.5,38.5,29,29.87,10.0,WSW,8.1,16.1,N/A,,Clear,250,2012-10-19 17:15:00
1:35 PM,73.2,36.1,26,29.86,10.0,WSW,10.4,20.7,N/A,,Clear,250,2012-10-19 17:35:00
1:55 PM,73.6,37.0,26,29.85,10.0,SW,10.4,19.6,N/A,,Clear,230,2012-10-19 17:55:00
2:15 PM,74.1,38.1,27,29.84,10.0,SSW,11.5,21.9,N/A,,Clear,210,2012-10-19 18:15:00
2:35 PM,74.3,37.9,27,29.84,10.0,West,11.5,21.9,N/A,,Clear,260,2012-10-19 18:35:00
2:55 PM,74.8,38.1,26,29.83,10.0,SW,12.7,18.4,N/A,,Clear,230,2012-10-19 18:55:00
3:15 PM,74.3,37.2,26,29.83,10.0,West,15.0,21.9,N/A,,Clear,260,2012-10-19 19:15:00
3:35 PM,74.7,37.8,26,29.82,10.0,WSW,9.2,19.6,N/A,,Clear,250,2012-10-19 19:35:00
3:55 PM,74.5,37.0,26,29.81,10.0,West,11.5,19.6,N/A,,Clear,280,2012-10-19 19:55:00
4:15 PM,75.0,35.4,24,29.81,10.0,West,12.7,20.7,N/A,,Clear,260,2012-10-19 20:15:00
4:35 PM,75.2,35.1,23,29.81,10.0,WSW,12.7,21.9,N/A,,Clear,250,2012-10-19 20:35:00
4:55 PM,74.3,33.8,23,29.80,10.0,WSW,15.0,21.9,N/A,,Clear,250,2012-10-19 20:55:00
5:15 PM,73.6,34.0,23,29.80,10.0,West,9.2,17.3,N/A,,Clear,260,2012-10-19 21:15:00
5:35 PM,73.0,34.9,25,29.80,10.0,West,12.7,16.1,N/A,,Clear,260,2012-10-19 21:35:00
5:55 PM,72.5,35.4,26,29.81,10.0,WSW,10.4,16.1,N/A,,Clear,250,2012-10-19 21:55:00
6:15 PM,70.9,35.8,28,29.81,10.0,West,6.9,-,N/A,,Clear,260,2012-10-19 22:15:00
6:35 PM,69.3,35.6,29,29.81,10.0,West,3.5,-,N/A,,Clear,260,2012-10-19 22:35:00
6:55 PM,66.4,35.8,32,29.82,10.0,Calm,Calm,-,N/A,,Clear,0,2012-10-19 22:55:00
7:15 PM,62.1,36.5,39,29.82,10.0,West,3.5,-,N/A,,Clear,260,2012-10-19 23:15:00
7:35 PM,59.0,38.7,47,29.83,10.0,Calm,Calm,-,N/A,,Clear,0,2012-10-19 23:35:00
7:55 PM,57.0,40.3,54,29.83,10.0,Calm,Calm,-,N/A,,Clear,0,2012-10-19 23:55:00
8:15 PM,55.2,40.5,58,29.84,10.0,Calm,Calm,-,N/A,,Clear,0,2012-10-20 00:15:00
8:35 PM,53.6,38.7,57,29.84,10.0,Calm,Calm,-,N/A,,Clear,0,2012-10-20 00:35:00
8:55 PM,52.5,39.9,62,29.85,10.0,Calm,Calm,-,N/A,,Clear,0,2012-10-20 00:55:00
9:15 PM,50.4,40.8,70,29.86,10.0,Calm,Calm,-,N/A,,Clear,0,2012-10-20 01:15:00
9:35 PM,49.5,40.5,71,29.86,10.0,Calm,Calm,-,N/A,,Clear,0,2012-10-20 01:35:00
9:55 PM,48.6,41.2,76,29.86,10.0,Calm,Calm,-,N/A,,Clear,0,2012-10-20 01:55:00
10:15 PM,49.1,41.2,74,29.87,10.0,Calm,Calm,-,N/A,,Clear,0,2012-10-20 02:15:00
10:35 PM,48.7,41.5,76,29.87,10.0,Calm,Calm,-,N/A,,Clear,0,2012-10-20 02:35:00
10:55 PM,49.3,41.9,76,29.87,10.0,Calm,Calm,-,N/A,,Clear,0,2012-10-20 02:55:00
11:15 PM,49.1,42.3,77,29.86,10.0,Calm,Calm,-,N/A,,Clear,0,2012-10-20 03:15:00
11:35 PM,48.6,39.7,72,29.87,10.0,Calm,Calm,-,N/A,,Clear,0,2012-10-20 03:35:00
11:55 PM,48.2,39.7,73,29.87,10.0,Calm,Calm,-,N/A,,Clear,0,2012-10-20 03:55:00